[[{"header":{"parameterUnit":"m.s-1","parameterCategory":1,"la1":30.2991,"la2":30.254,"lo1":-89.0895,"lo2":-89.0444,"dy":0.0017,"dx":0.0017,"nx":28,"ny":28,"refTime":"2023-09-01T09:00:00:Z","depth":0,"parameterNumber":2,"parameterNumberName":"U-component_of_WINDS"},"data":[0,0,0,0,0,0,0,0,0,0,0,0,0,0,0,0,0,0,0,0,0,0,0,0,0,0,0,0,0,0,0,0,0,0,0,0,0,0,0,0,0,0,0,0,0,0,0,0,0,0,0,0,0,0,0,0,0,0,-1.4443,-1.4443,0,-1.4445,-1.4445,-1.4445,-1.4401,-1.44,-1.4399,-1.4398,-1.4399,-1.44,-1.4401,0,0,0,0,0,0,0,0,0,0,0,0,0,-1.4402,-1.4403,-1.4443,-1.4443,-1.4443,-1.4445,-1.4445,-1.4445,-1.4401,-1.44,-1.4399,-1.4397,-1.4399,-1.44,-1.4402,0,0,0,0,0,0,0,0,0,0,0,0,0,-1.4414,-1.4403,-1.4443,-1.4421,-1.442,-1.4445,-1.4445,-1.4445,-1.4402,-1.44,-1.4398,-1.4397,-1.4398,-1.44,-1.4402,-1.4447,0,0,-1.4407,-1.4408,0,0,0,0,0,0,0,0,-1.4413,-1.4415,-1.4425,-1.4423,-1.4421,-1.4421,-1.4431,-1.4445,-1.4402,-1.4408,-1.4398,-1.4396,-1.4408,-1.4409,-1.4413,-1.4447,-1.4447,-1.4407,-1.4408,-1.4409,-1.4409,0,0,0,0,0,0,0,-1.4412,-1.4415,-1.4443,-1.4425,-1.4423,-1.4412,-1.4412,-1.4433,-1.4418,-1.4408,-1.4405,-1.4405,-1.4406,-1.4411,-1.4412,-1.4447,-1.4407,-1.4408,-1.4409,-1.441,-1.452,-1.4521,0,0,0,0,0,0,-1.4414,-1.4414,-1.4443,-1.4444,-1.4413,-1.4414,-1.4414,-1.4423,-1.4418,-1.4415,-1.4407,-1.4403,-1.4409,-1.4411,-1.4412,-1.4465,-1.4409,-1.441,-1.4411,-1.4518,-1.452,-1.4522,0,0,0,0,0,0,-1.4414,-1.4417,-1.4443,-1.4428,-1.4431,-1.4417,-1.4427,-1.4424,-1.4428,-1.4417,-1.4414,-1.4415,-1.4408,-1.441,-1.4439,-1.4465,-1.4411,-1.4413,-1.4516,-1.4518,-1.4521,-1.4572,0,0,0,0,0,0,-1.4413,-1.4417,-1.4434,-1.4429,-1.4432,-1.447,-1.4429,-1.4425,-1.4431,-1.4427,-1.4423,-1.4421,-1.4407,-1.4437,-1.4441,-1.4466,-1.4414,-1.4513,-1.4517,-1.452,-1.4568,-1.4576,-1.4583,0,0,0,0,0,-1.4411,-1.4448,-1.4435,-1.4439,-1.4452,-1.4471,-1.4473,-1.4456,-1.4434,-1.4451,-1.4444,-1.4421,-1.4462,-1.444,-1.4444,-1.4471,-1.4511,-1.4516,-1.452,-1.4564,-1.4575,-1.4583,0,0,0,0,0,0,-1.4457,-1.4447,-1.4433,-1.4469,-1.4471,-1.4464,-1.4485,-1.4467,-1.4476,-1.4471,-1.4449,-1.4449,-1.4481,-1.4479,-1.4455,-1.4515,-1.4483,-1.4488,-1.4515,-1.4525,-1.4532,-1.4532,-1.4415,0,0,0,0,0,-1.4471,-1.4487,-1.4478,-1.4511,-1.4513,-1.4499,-1.4506,-1.4493,-1.4495,-1.4496,-1.449,-1.4493,-1.4506,-1.4515,-1.4527,-1.4568,-1.4566,-1.4588,-1.4596,-1.4602,-1.4607,-1.4629,-1.4638,-1.4536,-1.4536,-1.4536,0,0,-1.45,-1.4497,-1.4509,-1.452,-1.452,-1.4538,-1.45,-1.452,-1.4533,-1.4498,-1.4526,-1.4522,-1.4523,-1.4559,-1.4574,-1.4558,-1.4635,-1.4607,-1.4613,-1.4614,-1.4634,-1.4644,-1.4652,-1.4539,-1.4539,-1.4538,0,0,-1.4563,-1.4562,-1.459,-1.4591,-1.4592,-1.4583,-1.459,-1.4586,-1.4582,-1.4609,-1.4584,-1.4599,-1.4622,-1.4624,-1.4629,-1.4694,-1.4673,-1.4698,-1.4738,-1.476,-1.4768,-1.4775,-1.4798,-1.4807,-1.4703,-1.4703,-1.4703,0,-1.4599,-1.4624,-1.4606,-1.4628,-1.4634,-1.4604,-1.4632,-1.4634,-1.4639,-1.4644,-1.4626,-1.4655,-1.4654,-1.469,-1.4706,-1.471,-1.4717,-1.4698,-1.4768,-1.4775,-1.4781,-1.4803,-1.4812,-1.4706,-1.4706,-1.4705,-1.4705,0,-1.4669,-1.4687,-1.471,-1.4716,-1.4724,-1.4749,-1.4734,-1.4745,-1.4732,-1.4724,-1.4753,-1.475,-1.4761,-1.4769,-1.4755,-1.4803,-1.4793,-1.4772,-1.4739,-1.4794,-1.4815,-1.4823,-1.471,-1.4709,-1.4708,-1.4707,0,0,-1.4759,-1.4756,-1.4764,-1.4767,-1.4767,-1.478,-1.4804,-1.4815,-1.4825,-1.483,-1.485,-1.4871,-1.4851,-1.4856,-1.4843,-1.4862,-1.4914,-1.4839,-1.4838,-1.4853,-1.4967,-1.4983,-1.4993,-1.4901,-1.4903,-1.4904,-1.4967,0,-1.482,-1.4861,-1.4845,-1.4887,-1.4904,-1.4877,-1.4898,-1.49,-1.4894,-1.4908,-1.4901,-1.4917,-1.489,-1.4893,-1.491,-1.4904,-1.4937,-1.4899,-1.4919,-1.492,-1.492,-1.5003,-1.502,-1.5079,-1.4975,-1.4976,-1.4977,0,-1.4896,-1.4905,-1.4948,-1.4946,-1.4953,-1.4972,-1.4981,-1.4994,-1.4997,-1.4991,-1.4997,-1.498,-1.5004,-1.4972,-1.5004,-1.4979,-1.4986,-1.4985,-1.4987,-1.4988,-1.4952,-1.5007,-1.5098,-1.5107,-1.4989,-1.4988,-1.4988,0,-1.4958,-1.498,-1.5009,-1.5012,-1.5011,-1.5025,-1.5025,-1.5025,-1.5033,-1.5042,-1.5047,-1.5058,-1.5063,-1.5072,-1.5059,-1.5037,-1.5094,-1.506,-1.509,-1.509,-1.5102,-1.5102,-1.5196,-1.5108,-1.5108,-1.5107,-1.5107,0,-1.5027,-1.5055,-1.5037,-1.5055,-1.5085,-1.5068,-1.5099,-1.5095,-1.5097,-1.5114,-1.5091,-1.5107,-1.5089,-1.5104,-1.5093,-1.5122,-1.5125,-1.5121,-1.5118,-1.5123,-1.5123,-1.5127,-1.5123,-1.511,-1.5109,-1.5109,-1.5108,0,-1.5101,-1.509,-1.512,-1.5116,-1.5116,-1.5139,-1.5135,-1.5152,-1.5145,-1.5167,-1.5171,-1.516,-1.5177,-1.5164,-1.518,-1.5173,-1.5211,-1.5202,-1.521,-1.5208,-1.5238,-1.5236,-1.5338,-1.5351,-1.5254,-1.5255,-1.5256,0,-1.5145,-1.5166,-1.5165,-1.5175,-1.5177,-1.5193,-1.5201,-1.5185,-1.5194,-1.52,-1.5216,-1.523,-1.5241,-1.5269,-1.5262,-1.5275,-1.5266,-1.5301,-1.5267,-1.5272,-1.5266,-1.5265,-1.5267,-1.5307,-1.5309,-1.531,-1.531,0,-1.5226,-1.522,-1.5233,-1.5244,-1.5255,-1.5263,-1.5269,-1.5279,-1.5263,-1.5275,-1.5291,-1.53,-1.5317,-1.5332,-1.5342,-1.5342,-1.5324,-1.5321,-1.5329,-1.5334,-1.5338,-1.5336,-1.5229,-1.5319,-1.5318,-1.5317,-1.5317,-1.5316,-1.5287,-1.5304,-1.5306,-1.5322,-1.5325,-1.5332,-1.5347,-1.5343,-1.5357,-1.5369,-1.5359,-1.5379,-1.5382,-1.5394,-1.5396,-1.5412,-1.5398,-1.5408,-1.5411,-1.5414,-1.5418,-1.5336,-1.5414,-1.5414,-1.5413,-1.5413,-1.5413,0,-1.5366,-1.5367,-1.5381,-1.5391,-1.5403,-1.5386,-1.5392,-1.5403,-1.5422,-1.5426,-1.5437,-1.5457,-1.5472,-1.5467,-1.548,-1.5494,-1.5486,-1.5498,-1.5496,-1.5497,-1.5431,-1.5423,-1.5504,-1.5504,-1.5504,-1.5504,-1.5504,-1.5504,-1.5409,-1.5438,-1.5433,-1.5463,-1.5463,-1.5483,-1.5488,-1.5495,-1.5498,-1.5521,-1.5533,-1.553,-1.5531,-1.5545,-1.5557,-1.5556,-1.5561,-1.5577,-1.5572,-1.551,-1.5501,-1.5493,-1.5485,-1.5578,-1.5578,-1.5636,-1.5637,-1.5637]},{"header":{"parameterUnit":"m.s-1","parameterCategory":1,"la1":30.2991,"la2":30.254,"lo1":-89.0895,"lo2":-89.0444,"dy":0.0017,"dx":0.0017,"nx":28,"ny":28,"refTime":"2023-09-01T09:00:00:Z","depth":0,"parameterNumber":3,"parameterNumberName":"V-component_of_WINDS"},"data":[0,0,0,0,0,0,0,0,0,0,0,0,0,0,0,0,0,0,0,0,0,0,0,0,0,0,0,0,0,0,0,0,0,0,0,0,0,0,0,0,0,0,0,0,0,0,0,0,0,0,0,0,0,0,0,0,0,0,1.2815,1.2816,0,1.2905,1.2906,1.2907,1.2991,1.2992,1.2993,1.2994,1.3084,1.3086,1.3087,0,0,0,0,0,0,0,0,0,0,0,0,0,1.2713,1.2715,1.2815,1.2816,1.2817,1.2905,1.2906,1.2907,1.2991,1.2992,1.2994,1.2995,1.3084,1.3086,1.3087,0,0,0,0,0,0,0,0,0,0,0,0,0,1.2776,1.2715,1.2815,1.2869,1.2875,1.2905,1.2906,1.2908,1.2991,1.2992,1.2994,1.2995,1.3083,1.3086,1.3088,1.307,0,0,1.3094,1.3095,0,0,0,0,0,0,0,0,1.2772,1.2779,1.286,1.2866,1.2872,1.2939,1.2904,1.2962,1.299,1.2947,1.2994,1.2996,1.3035,1.3041,1.3054,1.3074,1.3078,1.3094,1.3096,1.3097,1.3097,0,0,0,0,0,0,0,1.2768,1.2776,1.2851,1.2861,1.2869,1.2889,1.29,1.2915,1.2981,1.2951,1.2957,1.2967,1.3038,1.3052,1.3057,1.3079,1.3094,1.3096,1.3098,1.3098,1.3088,1.3087,0,0,0,0,0,0,1.2755,1.2772,1.2848,1.2853,1.2825,1.2889,1.2901,1.2916,1.2981,1.2992,1.2965,1.297,1.3048,1.3054,1.306,1.3043,1.3097,1.3099,1.31,1.309,1.3088,1.3086,0,0,0,0,0,0,1.2753,1.2761,1.2844,1.2814,1.2826,1.289,1.2905,1.2917,1.2931,1.2992,1.3004,1.2967,1.3049,1.3057,1.3067,1.3047,1.31,1.3102,1.3092,1.3089,1.3087,1.3008,0,0,0,0,0,0,1.2749,1.276,1.2754,1.2813,1.2828,1.2849,1.2904,1.2917,1.2934,1.2942,1.2997,1.3008,1.3051,1.3063,1.3069,1.3051,1.3103,1.3093,1.309,1.3088,1.3013,1.3003,1.2995,0,0,0,0,0,1.2745,1.2727,1.2753,1.2762,1.2822,1.2848,1.2856,1.2906,1.2932,1.2927,1.2966,1.3006,1.3049,1.3063,1.3071,1.3053,1.3095,1.3091,1.3088,1.3017,1.3005,1.2996,0,0,0,0,0,0,1.2663,1.2736,1.2765,1.2766,1.28,1.2862,1.2856,1.2893,1.2919,1.2925,1.2987,1.2998,1.3,1.3028,1.3043,1.3039,1.3077,1.3075,1.3021,1.301,1.3002,1.2994,1.3105,0,0,0,0,0,1.2645,1.2661,1.2724,1.2719,1.2734,1.2792,1.2805,1.2842,1.2879,1.2893,1.2934,1.2967,1.2989,1.3002,1.3025,1.3018,1.3031,1.301,1.3001,1.2993,1.299,1.2988,1.2979,1.3075,1.3075,1.3075,0,0,1.2608,1.265,1.2656,1.2703,1.2734,1.2748,1.2803,1.2816,1.2827,1.2895,1.2906,1.2937,1.2979,1.298,1.2983,1.3003,1.2967,1.2989,1.2983,1.2984,1.2984,1.2975,1.2967,1.3072,1.3073,1.3073,0,0,1.2547,1.2581,1.258,1.261,1.2655,1.2694,1.2694,1.275,1.2773,1.2786,1.2837,1.2851,1.2887,1.2914,1.2933,1.2883,1.2921,1.2889,1.2843,1.2841,1.2833,1.2827,1.2808,1.2801,1.2886,1.2886,1.2886,0,1.2495,1.2519,1.2575,1.2584,1.2603,1.2667,1.2666,1.2692,1.2742,1.2754,1.2777,1.2823,1.2856,1.2864,1.2852,1.2865,1.2866,1.2882,1.283,1.2824,1.2819,1.2802,1.2795,1.2882,1.2882,1.2883,1.2883,0,1.2451,1.2467,1.2461,1.2509,1.2528,1.2532,1.2588,1.26,1.2635,1.2671,1.2683,1.2725,1.2757,1.2762,1.2796,1.2775,1.2786,1.2819,1.2858,1.2805,1.279,1.2784,1.2876,1.2877,1.2879,1.288,0,0,1.234,1.2419,1.2416,1.2438,1.2494,1.2507,1.2514,1.2547,1.2555,1.2588,1.2595,1.2624,1.2655,1.2676,1.2714,1.2712,1.2669,1.2745,1.2747,1.2728,1.2647,1.2621,1.2613,1.2695,1.2694,1.2693,1.2643,0,1.2287,1.2304,1.2355,1.2356,1.2371,1.2432,1.2439,1.2473,1.2507,1.2524,1.2562,1.2581,1.2621,1.2634,1.2634,1.2674,1.2653,1.2678,1.27,1.2701,1.2687,1.2605,1.2578,1.2529,1.2638,1.2637,1.2636,0,1.2228,1.2257,1.226,1.2315,1.2323,1.2328,1.2362,1.2378,1.2418,1.2443,1.2467,1.251,1.252,1.2558,1.2573,1.2588,1.2601,1.2622,1.2621,1.2624,1.2664,1.2605,1.2515,1.2507,1.2628,1.2628,1.2629,0,1.2145,1.2185,1.2192,1.221,1.2274,1.2276,1.2303,1.2345,1.2361,1.2391,1.2402,1.2432,1.2448,1.247,1.252,1.2543,1.2529,1.2571,1.2549,1.2547,1.2542,1.2541,1.2452,1.2552,1.2552,1.2552,1.2552,0,1.208,1.2079,1.2156,1.2159,1.216,1.2219,1.2218,1.225,1.2287,1.2298,1.2353,1.2362,1.2428,1.2444,1.2483,1.2489,1.2496,1.2516,1.2526,1.251,1.2507,1.2518,1.2522,1.255,1.2551,1.2551,1.2551,0,1.1986,1.2038,1.2049,1.211,1.2125,1.2123,1.2174,1.218,1.2218,1.2232,1.2238,1.2297,1.232,1.2371,1.2407,1.2434,1.2429,1.2448,1.2415,1.2421,1.2396,1.2397,1.2309,1.2301,1.2407,1.2406,1.2405,0,1.1941,1.1941,1.2002,1.2014,1.2039,1.2057,1.2074,1.2132,1.2148,1.2194,1.2194,1.2221,1.2245,1.2278,1.2324,1.2351,1.2371,1.2338,1.2375,1.2359,1.2369,1.2368,1.2368,1.2329,1.2328,1.2327,1.2326,0,1.1854,1.188,1.1903,1.1934,1.1953,1.1981,1.2012,1.2018,1.2083,1.2098,1.2122,1.2141,1.2178,1.2203,1.2238,1.2266,1.2306,1.2314,1.231,1.2294,1.2274,1.2283,1.2391,1.2315,1.2316,1.2317,1.2318,1.2318,1.1783,1.1786,1.1829,1.1853,1.1882,1.191,1.1918,1.1958,1.1979,1.2014,1.2047,1.2067,1.2108,1.2159,1.2184,1.22,1.2221,1.2216,1.2214,1.2212,1.2204,1.2272,1.2207,1.2207,1.2208,1.2208,1.2208,0,1.1698,1.1729,1.175,1.1792,1.181,1.1848,1.1884,1.1896,1.1914,1.1949,1.1972,1.1999,1.2024,1.2073,1.2102,1.2106,1.2125,1.2112,1.2111,1.2117,1.2185,1.2184,1.2095,1.2095,1.2095,1.2095,1.2095,1.2096,1.1656,1.1663,1.1694,1.1716,1.1748,1.1769,1.1786,1.1811,1.1839,1.1867,1.1889,1.1921,1.1961,1.1994,1.2019,1.2032,1.204,1.202,1.2039,1.2101,1.2112,1.2122,1.2122,1.2021,1.2021,1.197,1.1969,1.1969]}]]